TimeCDT,TemperatureF,Dew PointF,Humidity,Sea Level PressureIn,VisibilityMPH,Wind Direction,Wind SpeedMPH,Gust SpeedMPH,PrecipitationIn,Events,Conditions,WindDirDegrees,DateUTC
12:15 AM,67.3,65.3,93,30.14,2.0,Calm,Calm,-,N/A,,Clear,0,2012-10-05 05:15:00
12:35 AM,67.3,65.1,93,30.14,3.0,Calm,Calm,-,N/A,,Clear,0,2012-10-05 05:35:00
12:55 AM,67.3,65.3,93,30.14,2.5,Calm,Calm,-,N/A,,Clear,0,2012-10-05 05:55:00
1:15 AM,67.3,65.3,93,30.13,4.0,Calm,Calm,-,N/A,,Clear,0,2012-10-05 06:15:00
1:35 AM,67.6,65.7,93,30.13,7.0,Calm,Calm,-,N/A,,Clear,0,2012-10-05 06:35:00
1:55 AM,67.3,65.3,93,30.13,1.5,Calm,Calm,-,N/A,,Unknown,0,2012-10-05 06:55:00
2:15 AM,66.7,64.6,93,30.13,4.0,East,4.6,-,N/A,,Clear,90,2012-10-05 07:15:00
2:35 AM,66.0,63.9,93,30.13,0.5,Calm,Calm,-,N/A,,Mostly Cloudy,0,2012-10-05 07:35:00
2:55 AM,67.1,65.1,93,30.13,1.2,Calm,Calm,-,N/A,,Scattered Clouds,0,2012-10-05 07:55:00
3:15 AM,67.3,65.3,93,30.13,2.5,Calm,Calm,-,N/A,,Clear,0,2012-10-05 08:15:00
3:35 AM,66.7,64.8,93,30.13,1.0,Calm,Calm,-,N/A,,Overcast,0,2012-10-05 08:35:00
3:55 AM,66.2,64.4,94,30.12,1.8,Calm,Calm,-,N/A,,Mostly Cloudy,0,2012-10-05 08:55:00
4:15 AM,66.4,64.6,94,30.12,2.5,Calm,Calm,-,N/A,,Scattered Clouds,0,2012-10-05 09:15:00
4:35 AM,67.1,65.3,94,30.12,4.0,Calm,Calm,-,N/A,,Mostly Cloudy,0,2012-10-05 09:35:00
4:55 AM,67.1,65.3,94,30.12,5.0,Calm,Calm,-,N/A,,Scattered Clouds,0,2012-10-05 09:55:00
5:15 AM,66.4,64.4,93,30.12,3.0,Calm,Calm,-,N/A,,Clear,0,2012-10-05 10:15:00
5:35 AM,66.0,64.0,93,30.12,3.0,Calm,Calm,-,N/A,,Clear,0,2012-10-05 10:35:00
5:55 AM,66.4,64.4,93,30.13,2.5,Calm,Calm,-,N/A,,Clear,0,2012-10-05 10:55:00
6:00 AM,66.2,64.4,94,30.13,5.0,Calm,Calm,-,N/A,,Clear,0,2012-10-05 11:00:00
6:58 AM,66.2,64.4,94,30.14,4.0,Calm,Calm,-,N/A,,Clear,0,2012-10-05 11:58:00
7:58 AM,68.0,66.2,94,30.14,6.0,Calm,Calm,-,N/A,,Clear,0,2012-10-05 12:58:00
8:58 AM,73.4,66.2,78,30.15,10.0,Calm,Calm,-,N/A,,Clear,0,2012-10-05 13:58:00
9:50 AM,77.0,69.8,78,30.15,10.0,East,6.9,-,N/A,,Clear,100,2012-10-05 14:50:00
10:49 AM,80.6,68.0,65,30.14,10.0,ESE,6.9,-,N/A,,Clear,110,2012-10-05 15:49:00
11:45 AM,82.4,66.2,58,30.13,10.0,SSE,5.8,-,N/A,,Scattered Clouds,150,2012-10-05 16:45:00
12:53 PM,82.4,64.4,54,30.11,10.0,SSE,5.8,-,N/A,,Scattered Clouds,150,2012-10-05 17:53:00
1:45 PM,82.4,62.6,51,30.09,10.0,SSE,6.9,-,N/A,,Scattered Clouds,150,2012-10-05 18:45:00
2:49 PM,84.2,64.4,51,30.05,10.0,Calm,Calm,-,N/A,,Scattered Clouds,0,2012-10-05 19:49:00
3:50 PM,84.2,62.6,48,30.03,10.0,South,4.6,-,N/A,,Scattered Clouds,180,2012-10-05 20:50:00
4:50 PM,84.2,62.6,48,30.01,10.0,South,5.8,-,N/A,,Scattered Clouds,190,2012-10-05 21:50:00
5:50 PM,84.2,57.2,40,30.02,10.0,SSW,4.6,-,N/A,,Scattered Clouds,200,2012-10-05 22:50:00
6:50 PM,80.6,62.6,54,30.02,10.0,SSW,6.9,-,N/A,,Clear,200,2012-10-05 23:50:00
8:55 PM,75.2,66.2,73,30.02,10.0,SSW,4.6,-,N/A,,Clear,200,2012-10-06 01:55:00
9:50 PM,69.8,66.2,88,30.03,10.0,Calm,Calm,-,N/A,,Clear,0,2012-10-06 02:50:00
10:15 PM,70.0,67.1,91,30.03,10.0,Calm,Calm,-,N/A,,Clear,0,2012-10-06 03:15:00
10:35 PM,68.4,65.7,91,30.03,10.0,Calm,Calm,-,N/A,,Clear,0,2012-10-06 03:35:00
10:55 PM,68.5,66.2,92,30.03,10.0,Calm,Calm,-,N/A,,Clear,0,2012-10-06 03:55:00
11:15 PM,68.2,66.0,93,30.03,10.0,Calm,Calm,-,N/A,,Clear,0,2012-10-06 04:15:00
11:35 PM,68.4,66.2,93,30.03,7.0,Calm,Calm,-,N/A,,Clear,0,2012-10-06 04:35:00
11:55 PM,69.1,67.1,93,30.03,10.0,Calm,Calm,-,N/A,,Clear,0,2012-10-06 04:55:00